Flag for Germany Weather past 2 weeks in Wismar, Mecklenburg-Western Pomerania, Germany

Now
52 °F

Light rain. Low clouds.


Feels Like: 48 °F
Forecast: 41 / 42 °F
Wind: 10 mph from Southwest

Location: Schwerin

Current Time: Dec 19, 2014 at 7:55:01 AM

Latest Report: Dec 19, 2014 at 7:00 AM


Visibility: 6 mi

Pressure: 29.59 "Hg

Humidity: 96%

Dew point: 51 °F

Location of WismarLocation

Historic Weather in Wismar — Graph

°F

Wismar temperature yesterday

Maximum temperature yesterday: 52 °F (at 11:00 PM)
Minimum temperature yesterday: 42 °F (at 12:00 AM)
Average temperature yesterday: 48 °F

Past Weeks' High & Low Weather Summary

 TemperatureHumidityPressure
High52 °F (Dec 18, 11:00 PM)100% (Dec 6, 7:00 PM)30.32 "Hg (Dec 6, 7:00 PM)
Low31 °F (Dec 4, 7:00 AM)76% (Dec 10, 7:00 AM)29.21 "Hg (Dec 12, 3:00 PM)
Average38 °F91%29.86 "Hg
* Reported Dec 4 7:00 AM — Dec 19 7:00 AM, Wismar, Weather by CustomWeather, © 2014

Note: Actual official high and low records may vary slightly from our data, if they occured in-between our weather recording intervals... More about our weather records

Advertising

Wismar weather history for previous 24 hours

 ConditionsComfort  
Time TempWeatherWind HumidityBarometerVisibility
7:00 AM
Dec 19
52 °FLight rain. Low clouds.10 mph96%29.59 "Hg6 mi
6:00 AM52 °FLight freezing rain. Low clouds.9 mph95%29.60 "Hg9 mi
5:00 AM52 °FDrizzle. Low clouds.9 mph96%29.62 "Hg3 mi
3:00 AM52 °FLow clouds.10 mph95%29.62 "Hg8 mi
2:00 AM52 °FLight rain. Overcast.10 mph95%29.62 "Hg6 mi
1:00 AM52 °FRain. Low clouds.10 mph95%29.62 "Hg3 mi
12:00 AM52 °FDrizzle. Low clouds.10 mph96%29.61 "Hg4 mi
11:00 PM
Dec 18
52 °FDrizzle. Low clouds.10 mph96%29.60 "Hg9 mi
9:00 PM52 °FLight rain. Low clouds.9 mph95%29.59 "Hg9 mi
8:00 PM51 °FDrizzle. Low clouds.9 mph97%29.59 "Hg4 mi
7:00 PM50 °FDrizzle. Low clouds.8 mph99%29.60 "Hg1 mi
6:00 PM50 °FLight freezing rain. Low clouds.7 mph98%29.61 "Hg1 mi
5:00 PM50 °FDrizzle. Low clouds.7 mph97%29.62 "Hg2 mi
3:00 PM50 °FOvercast.8 mph94%29.64 "Hg6 mi
2:00 PM50 °FDrizzle. Low clouds.8 mph95%29.66 "Hg3 mi
1:00 PM51 °FLow clouds.8 mph94%29.68 "Hg5 mi
12:00 PM50 °FLow clouds.8 mph97%29.69 "Hg4 mi
11:00 AM48 °FLow clouds.8 mph99%29.71 "Hg2 mi
9:00 AM46 °FDrizzle. Low clouds.6 mph98%29.72 "Hg1 mi
8:00 AM45 °FFog.5 mph97%29.72 "Hg3 mi
7:00 AM44 °FFog.5 mph97%29.73 "Hg3 mi
Weather by CustomWeather, © 2014

See weather overviewHow to use our weather pages